RH
17 19 22 28 32 30 26 22 20 10 5 4 5 9 11 14 20 34 37 41 31 50 71 83 80 75 80 80 64 75 83 74 66 72 75 91 94 80 57 61 55 57 56 55 57 55 54 49 43
21 23 28 33 34 30 27 21 11 6 4 5 9 13 16 26 27 38 48 61 69 62 91 87 82 80 56 54 63 63 64 66 65 67 83 83 90 81 67 63 60 62 61 58 55 53 49 56 52
23 29 34 35 33 31 26 14 7 4 4 7 13 16 20 24 22 26 36 47 70 84 71 81 62 63 80 51 58 50 54 60 62 78 74 84 88 93 76 71 70 70 63 59 60 55 49 46 47
33 36 36 37 34 32 20 10 6 4 6 12 14 18 19 21 25 26 35 45 44 70 80 81 57 60 83 96 88 99 79 60 52 56 70 65 98 92 82 80 80 66 63 66 68 66 67 54 54
39 38 38 37 34 30 15 9 4 6 9 13 16 17 19 23 21 25 54 66 86 89 96 84 84 82 52 71 94 73 63 85 76 64 61 92 96 97 94 93 63 66 60 68 70 71 75 76 74
42 42 40 38 39 25 14 6 5 8 12 15 19 20 18 20 19 28 46 66 77 64 44 95 71 87 93 97 95 95 96 95 95 94 60 70 96 97 97 84 65 53 58 70 77 90 83 82 76
44 46 40 41 40 21 12 6 7 10 14 19 13 10 10 12 14 22 43 69 73 64 67 88 97 94 96 97 96 92 96 97 94 96 85 88 92 93 97 85 67 65 65 73 76 85 78 81 86
49 46 36 43 37 22 14 8 8 11 15 19 18 18 17 30 29 19 46 74 74 80 89 98 97 96 91 93 97 94 93 90 96 89 93 82 94 95 96 84 69 60 63 69 70 78 88 91 88
49 41 42 50 35 26 17 9 10 13 25 26 30 36 41 49 57 52 22 76 71 80 91 90 97 96 96 88 81 90 88 86 91 96 94 91 95 95 97 97 88 69 65 66 78 84 92 95 94
44 43 52 48 37 32 22 12 12 15 34 37 38 46 40 47 49 44 33 68 64 68 83 86 90 83 95 77 74 64 54 77 88 86 96 93 98 97 97 96 90 76 75 70 78 84 92 93 95
44 48 54 49 39 37 28 14 14 21 33 34 42 33 40 39 51 42 39 54 51 38 60 71 79 85 84 66 54 48 77 98 98 100 89 95 98 98 97 96 94 83 79 74 74 97 94 90 97
46 49 53 56 41 40 37 21 17 26 27 28 29 26 52 53 52 43 37 40 40 40 26 36 42 59 55 51 46 45 93 97 96 95 98 98 97 98 97 94 94 90 80 77 88 94 93 96 96
44 50 48 54 50 45 45 29 23 27 31 36 34 29 27 36 46 48 47 47 36 35 25 25 36 43 44 44 42 44 95 95 97 97 97 97 97 98 96 97 96 92 76 76 90 96 97 99 91
40 42 48 44 52 53 51 35 26 28 38 39 42 41 36 35 40 45 41 37 54 49 37 23 30 40 48 54 45 43 94 97 97 97 95 96 99 96 95 96 96 90 88 80 98 96 97 93 97
42 38 43 52 47 48 48 41 30 28 30 39 42 43 38 42 35 36 34 40 50 36 30 36 55 64 65 61 50 38 90 97 97 96 96 97 96 96 96 96 96 94 91 94 98 96 93 96 98
41 44 49 56 37 40 51 51 36 30 30 46 45 42 40 47 30 37 46 49 48 44 43 51 54 47 48 49 44 42 65 95 95 96 98 98 98 97 98 97 100 98 97 96 98 92 94 96 96
40 63 61 57 40 40 46 59 46 34 25 40 59 52 44 57 36 44 58 64 64 68 61 54 46 41 47 40 39 38 44 82 97 96 97 96 97 97 93 96 96 97 96 97 95 94 96 94 95
70 68 43 44 54 39 36 58 61 37 33 21 52 48 40 57 40 46 68 76 70 60 56 47 41 43 63 71 63 58 50 82 97 95 96 94 95 97 95 95 96 96 97 97 96 97 94 91 91
73 49 33 43 60 57 52 39 56 44 32 22 37 46 38 49 43 42 64 77 66 54 38 28 39 50 88 78 72 74 100 94 95 89 81 82 90 97 97 97 96 97 97 100 96 92 93 94 96
72 53 38 52 65 50 56 40 57 60 31 21 35 55 41 48 46 36 44 62 56 54 29 17 36 71 86 97 99 97 91 97 96 91 88 73 78 86 99 96 96 96 95 95 98 96 95 97 97
74 61 49 55 66 51 33 21 44 46 30 20 39 46 44 56 44 27 28 30 38 33 34 19 14 31 65 90 96 78 72 86 86 87 80 72 90 97 98 95 97 97 97 96 97 99 94 95 97
63 69 62 63 64 42 42 20 44 51 40 22 35 38 38 66 65 47 29 20 14 22 20 19 12 9 10 29 50 60 65 65 74 98 90 99 98 96 98 95 94 98 98 97 97 96 98 97 98
78 78 73 65 58 41 32 45 37 50 38 27 31 32 31 45 56 60 48 28 19 17 14 13 12 12 10 8 14 20 33 55 76 96 97 97 97 97 97 96 97 97 96 94 100 91 93 95 91
97 88 75 69 60 37 37 61 29 48 38 24 22 23 30 35 44 43 38 38 26 27 25 18 18 19 18 18 12 12 23 22 48 72 66 59 58 58 62 65 65 72 73 74 72 79 84 92 93
94 92 77 68 60 42 46 52 36 53 42 23 19 22 36 36 44 47 36 34 29 27 44 48 31 30 27 26 24 21 20 19 21 24 26 28 30 42 62 77 81 76 74 73 73 75 68 76 76
98 97 92 92 75 72 58 37 34 52 56 43 20 22 31 43 50 49 56 36 28 19 44 45 43 41 38 37 38 34 30 22 36 38 35 32 40 40 41 43 46 61 74 71 70 77 73 60 56
96 86 99 94 85 74 55 44 38 50 58 57 20 24 41 36 39 49 35 29 29 18 38 40 42 45 46 40 40 45 39 35 30 29 37 42 46 48 51 53 62 61 58 64 63 60 55 66 79
94 100 95 87 75 72 55 53 50 60 83 59 31 26 31 35 39 34 33 29 26 20 20 22 38 40 48 55 52 59 54 54 56 54 42 37 52 57 58 69 75 78 80 79 73 76 80 81 84
96 93 94 83 71 63 56 48 45 62 76 61 33 27 39 48 49 46 36 27 25 28 28 29 34 42 66 79 94 88 73 84 90 98 99 99 89 56 61 82 74 82 92 99 97 99 98 100 100
92 86 87 84 80 74 64 49 57 64 67 78 54 33 56 72 78 62 44 34 29 28 33 36 34 36 46 92 98 99 97 95 98 98 97 84 94 97 64 62 67 52 63 96 99 96 95 97 99
Wind_Speed
30 29 26 27 26 24 24 26 26 26 27 25 24 25 24 23 22 22 23 24 27 30 36 36 36 43 36 27 33 32 29 24 24 22 23 31 21 22 24 22 17 14 11 9 6 5 9 8 9
27 25 27 28 25 22 21 25 25 27 25 24 23 22 22 20 22 22 25 25 25 28 31 34 31 24 31 37 29 31 33 29 29 24 18 35 28 25 30 26 19 15 12 9 7 8 9 8 10
25 23 26 25 23 21 22 25 27 26 24 23 21 20 21 20 21 23 26 30 29 27 32 30 29 40 37 29 35 32 31 29 30 21 24 28 28 31 32 25 19 14 13 10 9 10 11 11 11
22 22 23 24 21 19 20 25 25 24 22 23 23 20 22 23 24 21 25 29 38 32 29 31 28 31 32 24 25 26 26 29 29 25 22 31 35 39 34 26 22 19 15 14 12 12 15 15 16
21 21 20 21 18 17 20 22 23 23 21 23 24 22 20 23 20 22 19 21 27 27 28 30 30 24 38 41 29 27 32 35 32 30 23 25 34 36 31 25 23 21 17 15 13 15 18 16 16
20 19 18 18 17 18 19 19 19 19 21 21 21 22 22 21 21 20 24 22 19 17 23 26 28 28 24 29 19 24 23 29 28 23 26 28 40 26 27 26 27 22 21 15 17 17 17 15 17
20 19 16 17 19 19 20 19 16 15 19 18 19 19 21 23 23 22 24 20 12 9 16 22 27 26 24 20 21 24 28 32 28 27 27 27 30 35 32 33 27 24 20 19 16 17 17 18 18
21 18 14 17 19 18 20 21 16 16 18 18 22 23 19 23 24 24 18 19 13 10 11 20 21 24 21 23 28 30 29 27 33 26 25 25 28 33 38 34 29 28 23 20 18 19 18 20 20
19 16 15 16 16 18 20 20 17 16 16 19 23 21 19 22 26 27 21 16 11 8 6 6 11 17 16 25 29 28 20 21 25 40 32 28 27 37 41 36 32 30 26 24 21 21 21 21 23
19 14 16 16 15 16 22 20 12 13 17 19 21 18 20 21 20 20 14 11 11 10 7 7 8 4 9 5 14 17 19 24 32 38 39 25 34 41 48 43 37 32 29 24 23 23 22 21 23
17 15 18 18 17 14 21 23 13 13 16 20 23 26 27 21 17 19 11 13 9 11 11 10 10 10 10 12 17 19 15 18 35 48 41 39 33 39 44 44 38 35 30 27 24 27 23 22 24
16 18 22 22 20 15 19 23 14 16 20 24 24 22 18 19 18 16 13 15 16 11 12 15 17 15 14 15 16 15 11 21 20 33 41 43 36 42 48 49 41 40 32 25 27 26 24 24 27
17 19 21 23 23 18 20 24 13 16 18 18 20 19 24 24 18 17 14 15 16 17 17 16 16 15 15 15 15 15 10 13 34 41 41 37 36 42 38 42 46 40 33 27 29 29 26 24 27
19 17 20 23 22 18 20 22 21 14 16 20 25 23 22 23 24 18 21 19 15 13 13 15 16 18 16 16 14 15 14 22 26 29 34 34 36 39 42 39 39 37 35 33 32 30 28 26 25
22 18 21 24 23 18 17 19 24 16 12 19 26 23 21 21 25 24 21 17 14 9 8 11 12 19 19 19 16 17 17 20 35 31 31 28 32 33 30 24 28 37 29 34 35 30 29 25 25
23 21 22 28 24 19 17 13 24 23 17 17 25 23 18 19 22 19 16 14 12 9 9 11 16 21 19 17 16 18 17 20 23 25 24 27 27 24 22 21 22 43 34 30 24 28 26 21 22
21 19 24 30 25 23 20 18 22 27 21 17 25 25 18 17 19 18 15 12 12 10 12 14 18 19 11 11 17 18 19 23 17 25 24 20 22 20 19 19 15 24 26 25 21 21 20 21 22
22 23 29 27 28 25 24 21 18 24 21 20 20 25 16 16 14 15 12 11 12 9 8 13 14 14 8 12 17 21 19 21 19 20 19 15 18 21 18 18 18 22 22 22 22 21 22 26 26
29 30 28 26 29 28 25 19 20 22 22 16 20 18 16 14 11 11 9 8 9 7 8 12 9 6 7 14 14 11 18 22 23 17 17 18 19 20 22 23 21 20 23 17 22 24 26 26 23
31 30 26 24 29 29 27 21 21 24 22 13 15 17 15 14 9 10 9 6 5 5 8 10 8 4 9 13 16 19 19 23 23 26 21 20 23 25 23 24 23 21 25 23 25 25 31 25 22
33 31 27 26 32 31 28 19 15 20 17 14 16 18 16 12 10 9 10 6 5 6 6 7 6 7 2 7 13 17 24 30 28 29 24 23 26 29 29 28 30 27 27 26 27 28 25 21 22
37 29 31 30 34 31 30 18 8 18 19 15 17 20 19 12 10 8 9 7 4 5 7 6 3 2 3 2 1 5 13 23 29 28 26 27 30 31 32 33 32 30 30 25 25 24 22 20 22
32 33 36 36 37 36 24 29 10 12 14 15 15 20 23 17 13 12 7 8 6 3 4 5 5 1 1 1 3 5 4 7 25 25 25 24 21 22 31 28 27 27 28 25 25 22 22 24 24
37 37 37 38 39 38 21 30 7 9 15 14 12 18 22 21 15 11 9 11 9 5 6 7 6 5 1 3 2 3 2 5 9 13 13 12 12 11 11 12 16 17 20 22 24 26 27 26 26
40 38 37 39 40 33 26 31 17 11 17 15 14 16 21 22 19 14 14 12 12 9 6 10 9 7 4 3 4 5 5 7 9 9 10 13 12 13 15 17 17 19 23 25 28 26 27 28 26
37 38 40 40 39 35 29 35 19 12 16 17 11 15 16 22 23 22 21 17 12 11 8 8 8 8 6 6 5 5 6 7 8 9 11 13 13 16 16 17 17 20 21 23 22 23 26 26 26
38 43 34 38 41 40 38 33 24 17 18 17 14 16 18 20 22 20 17 17 14 13 14 13 13 11 12 12 11 10 7 6 7 8 9 11 15 17 17 17 19 21 22 22 23 26 28 29 31
37 35 38 42 42 41 41 35 26 17 21 17 13 17 21 20 20 20 16 19 15 15 16 17 16 16 17 16 15 14 13 13 11 10 11 14 17 19 20 22 23 23 25 23 25 28 30 31 33
32 34 35 38 41 42 41 38 28 18 16 14 13 20 21 22 20 26 23 22 20 17 16 16 16 16 18 18 19 19 18 18 18 17 20 19 21 25 26 27 26 27 26 31 37 34 36 33 39
39 38 38 41 41 43 42 41 36 22 20 17 17 19 21 24 24 25 27 26 25 23 23 20 19 18 17 20 23 21 24 22 22 23 20 19 22 26 29 32 33 34 33 31 33 39 45 47 54
Wind_Direction
303 304 302 303 302 302 306 313 312 308 310 308 302 298 293 295 293 291 289 276 265 257 256 252 251 252 240 237 244 244 243 250 251 231 232 230 209 233 219 220 217 212 212 218 220 247 260 268 277
305 301 301 304 304 309 316 312 307 311 312 309 306 298 287 283 284 282 279 272 263 255 262 262 257 262 256 247 243 244 253 251 258 245 231 218 241 248 226 221 214 204 198 199 202 225 232 248 256
300 300 301 305 307 314 319 312 313 317 312 308 304 298 282 279 277 271 269 264 272 265 261 271 266 247 233 249 245 242 251 250 254 253 242 230 243 236 220 216 203 197 202 204 218 236 243 244 244
297 296 299 302 304 316 313 316 319 316 313 311 306 291 280 274 266 269 277 277 269 267 262 257 264 264 264 251 247 247 249 240 236 245 253 233 220 227 220 210 211 205 200 204 220 240 249 254 256
293 294 297 299 305 307 308 318 324 320 315 313 306 289 279 264 273 277 281 293 294 275 257 251 255 254 247 255 241 241 241 241 224 222 238 228 216 207 206 204 212 210 211 215 237 249 253 256 267
287 296 296 296 302 301 313 324 324 318 312 314 302 289 278 286 281 281 280 304 306 295 258 251 244 253 255 254 253 249 251 240 237 223 221 235 219 213 206 209 214 221 223 228 243 248 249 255 262
289 292 292 293 296 305 321 325 317 310 306 303 294 291 291 286 289 287 279 291 286 287 261 253 241 243 251 254 269 267 272 273 260 235 222 230 240 245 210 217 216 220 225 233 249 254 248 251 260
290 287 287 289 297 309 316 322 315 303 306 303 297 294 293 300 297 285 282 284 270 281 308 248 242 239 248 262 262 273 279 256 260 244 238 238 236 224 217 210 218 226 232 242 250 250 249 257 265
289 280 280 284 293 307 312 322 317 299 306 301 300 304 310 305 304 292 287 270 259 248 255 283 264 243 251 259 262 269 281 253 233 215 243 228 227 208 214 210 228 225 234 244 242 240 245 260 264
281 275 280 288 293 306 307 318 319 289 293 294 294 301 316 322 318 310 280 271 299 272 248 247 251 222 230 278 284 284 281 254 239 225 220 224 224 221 206 227 215 227 233 233 246 255 250 260 269
282 269 277 288 294 301 306 311 315 282 294 293 296 304 310 311 302 308 267 270 276 293 276 275 265 241 256 261 266 278 280 222 191 211 222 224 218 213 213 212 210 226 232 235 240 248 255 261 255
285 262 271 285 290 299 302 308 330 291 290 292 296 311 316 328 311 297 278 265 277 255 257 258 253 249 252 265 275 276 271 213 206 216 224 217 227 216 209 212 218 227 232 235 237 248 257 260 268
279 257 269 278 288 295 303 310 320 294 295 285 289 305 314 318 308 292 285 278 270 267 258 246 257 262 268 271 272 270 187 204 205 210 218 233 219 228 220 220 215 216 236 237 238 244 253 263 259
274 267 262 275 286 295 300 307 305 308 290 286 291 302 309 317 319 299 292 289 264 266 265 245 253 261 257 254 248 245 213 223 201 222 217 221 218 210 205 218 218 224 235 237 243 239 247 247 259
266 267 268 278 284 295 302 306 302 306 296 286 290 296 309 310 316 308 306 287 260 265 253 242 268 268 263 248 229 225 205 194 215 210 211 218 224 214 225 233 244 230 227 238 244 234 236 246 257
257 264 273 274 283 290 296 301 296 305 314 296 294 296 309 318 319 309 307 292 277 284 280 264 279 274 263 232 211 212 217 228 203 198 210 223 222 212 226 237 257 230 237 224 226 230 232 249 255
259 266 263 268 282 289 290 295 295 302 321 292 292 294 303 315 322 320 310 300 287 281 275 277 280 271 238 200 196 210 219 238 212 201 195 200 201 226 226 215 222 223 220 217 226 230 242 250 248
258 253 258 268 280 286 293 295 297 294 317 305 283 288 288 305 316 321 308 302 286 293 307 308 290 263 220 191 186 192 217 227 197 207 192 202 202 218 231 227 243 237 230 222 236 238 253 248 239
245 252 262 272 277 281 290 293 298 300 306 301 288 270 288 292 306 323 316 293 287 318 346 3 326 213 205 198 194 209 226 219 216 221 215 222 222 227 235 240 243 226 219 229 239 245 253 244 233
245 249 259 264 271 270 276 292 297 296 298 290 272 262 284 285 292 307 323 316 342 358 8 3 34 136 182 227 221 225 212 196 215 217 219 234 231 232 247 233 233 224 223 230 235 244 243 238 225
248 247 253 258 263 269 271 277 285 284 296 300 256 260 274 273 279 287 300 322 338 6 340 343 23 77 132 221 233 227 219 215 225 229 227 233 236 236 240 241 240 238 236 237 242 247 244 215 215
247 246 248 255 258 263 273 279 294 285 297 303 249 254 260 251 266 279 293 308 316 339 321 320 323 61 104 154 204 214 221 221 223 225 233 231 243 226 224 233 243 240 238 239 240 227 213 220 229
246 236 241 247 257 263 271 278 280 279 290 285 247 249 252 254 264 265 283 279 292 287 301 307 308 308 169 159 242 235 188 215 220 238 225 244 240 247 243 244 243 242 236 232 219 213 225 228 231
237 239 241 248 256 261 272 277 271 278 278 279 284 248 248 256 252 264 268 264 263 259 279 283 288 297 311 133 215 218 209 200 182 203 207 203 201 208 217 227 231 221 215 209 212 223 231 236 238
237 241 243 249 255 266 265 266 273 276 274 277 286 239 242 256 266 274 289 270 253 243 267 274 278 276 253 197 183 198 200 205 200 211 218 217 210 207 216 224 225 226 228 228 230 233 239 238 235
237 237 241 250 257 263 253 257 261 265 275 279 278 227 243 254 265 273 276 281 250 240 243 251 254 257 264 269 271 237 212 206 210 221 228 235 231 231 229 234 241 244 243 246 247 252 257 263 264
234 239 243 247 252 255 251 255 258 269 266 268 265 223 231 254 264 273 250 265 245 238 241 245 245 254 262 272 286 285 278 262 258 249 240 239 240 241 239 236 238 242 246 251 251 249 252 256 261
233 233 235 241 247 252 257 257 260 265 276 260 253 243 234 249 249 255 262 259 240 243 246 249 251 254 262 273 274 276 281 282 276 263 251 246 240 239 241 234 237 238 242 252 259 258 255 258 261
243 240 241 246 250 253 259 263 263 261 270 255 248 240 235 238 251 251 253 247 252 247 247 256 260 259 261 269 274 277 281 287 299 300 309 272 247 242 242 243 250 250 250 261 266 264 264 268 273
238 237 237 240 246 253 259 261 266 255 266 257 246 248 241 239 249 243 247 246 245 266 266 254 251 256 259 259 268 273 275 284 298 291 279 276 282 272 249 253 255 253 255 271 258 269 276 259 261